Regional Weather Roundup
Issued by NWS Goodland, KS

Home | Current Version | Previous Version | Graphics & Text | Print | Product List | Glossary On
Versions: 1 2 3 4 5 6 7 8 9 10 11 12 13 14 15 16 17 18 19 20 21 22 23 24 25 26 27 28 29 30 31 32 33 34 35 36 37 38 39 40 41 42 43 44 45 46 47 48 49 50
000
ASUS43 KGLD 301708
RWRGLD

GOODLAND FORECAST AREA HOURLY WEATHER ROUNDUP
NATIONAL WEATHER SERVICE GOODLAND KS
1100 AM MDT MON MAY 30 2016

...OFFICIAL OBSERVATIONS...

CITY           SKY/WX    TMP DP  RH WIND       PRES   REMARKS
GOODLAND KS    SUNNY     72  54  53 S12       29.98F
HILL CITY KS   SUNNY     80  54  40 S15G22    29.98F
IMPERIAL NEB   SUNNY     72  54  53 S7        29.97F
MCCOOK NEB     SUNNY     76  54  46 S9        29.96F
AKRON CO       SUNNY     72  49  44 CALM      30.00F
BURLINGTON CO  SUNNY     73  51  46 S9        30.00F
LIMON CO       SUNNY     69  49  48 S6        30.05F
$$

...UNOFFICIAL OBSERVATIONS...

CITY           SKY/WX    TMP DP  RH WIND       PRES   REMARKS
GOVE KS          N/A     85  32  15 MISG        N/A
LENORA KS        N/A     76  32  20 MISG        N/A
KIT CARSON CO    N/A     71  51  49 MISG        N/A
YUMA CO          N/A     74  52  46 CALM        N/A
$$




USA.gov is the U.S. government's official web portal to all federal, state and local government web resources and services.